PA0HHN Weather Reports


time (UTC)temp
F
wind
direction
speed
knots
gust
knots
rain 1hr
in
rain 24hr
in
rain mn
in
humidity
%
barometer
mb
20260506201502 50 256 0.0 0.0 0.00 0.00 0.00 82 1005.9
20260506200003 50 246 0.0 0.0 0.00 0.00 0.00 81 1005.8
20260506194500 50 225 0.0 0.0 0.00 0.00 0.00 80 1005.7
20260506193002 52 259 0.0 0.0 0.00 0.00 0.00 81 1005.4
20260506191501 52 262 0.0 0.0 0.00 0.00 0.00 80 1005.4
20260506190000 52 264 0.0 0.0 0.00 0.00 0.00 80 1005.4
20260506184500 52 261 0.0 0.0 0.00 0.00 0.00 80 1005.2
20260506183001 52 269 0.0 0.0 0.00 0.00 0.00 80 1005.0
20260506181502 52 268 0.0 0.0 0.00 0.00 0.00 79 1004.9
20260506180003 52 265 0.0 0.0 0.00 0.00 0.00 79 1004.6
20260506174502 52 268 0.0 0.0 0.00 0.00 0.00 77 1004.5
20260506173000 52 274 0.0 0.0 0.00 0.00 0.00 77 1004.2
20260506171502 52 343 0.0 0.0 0.00 0.00 0.00 76 1004.2
20260506170001 54 260 0.0 0.0 0.00 0.00 0.00 77 1004.3
20260506164502 52 260 0.0 0.0 0.00 0.00 0.00 76 1004.3
20260506163002 54 160 0.0 0.0 0.00 0.00 0.00 77 1004.0
20260506161502 54 338 0.9 0.0 0.00 0.00 0.00 74 1004.3
20260506160000 54 249 0.0 0.0 0.00 0.00 0.00 75 1004.2
20260506154502 54 274 0.0 0.0 0.00 0.00 0.00 75 1004.0
20260506153001 54 257 0.0 0.0 0.00 0.00 0.00 77 1004.3
20260506151502 54 282 0.0 0.0 0.00 0.00 0.00 76 1004.1
20260506150002 52 21 0.9 0.0 0.00 0.00 0.00 76 1004.1
20260506144501 52 266 0.0 0.0 0.00 0.00 0.00 76 1003.7
20260506143000 54 248 1.7 0.0 0.00 0.00 0.00 73 1003.8
20260506141500 54 255 1.7 0.0 0.00 0.00 0.00 74 1003.9
20260506140001 54 41 2.6 0.0 0.00 0.00 0.00 74 1003.9
20260506134501 52 311 1.7 0.0 0.00 0.00 0.00 77 1003.9
20260506133000 54 317 0.9 0.0 0.00 0.00 0.00 77 1004.2
20260506121502 50 16 0.0 0.0 0.00 0.00 0.00 80 1003.9
20260506113000 50 146 0.9 0.0 0.00 0.00 0.00 78 1003.6
20260506111502 50 51 1.7 0.0 0.00 0.00 0.00 78 1003.5
20260506110002 50 4 0.9 0.0 0.00 0.00 0.00 78 1003.3
20260506104500 50 41 0.9 0.0 0.00 0.00 0.00 78 1003.6
20260506103001 50 1 1.7 0.0 0.00 0.00 0.00 77 1003.4
20260506101502 50 200 0.9 0.0 0.00 0.00 0.00 81 1003.3
20260506100000 50 260 0.0 0.0 0.00 0.00 0.00 82 1003.0
20260506094502 50 245 0.0 0.0 0.00 0.00 0.00 81 1003.0
20260506093000 50 242 0.0 0.0 0.00 0.00 0.00 82 1003.1
20260506091502 50 54 1.7 0.0 0.00 0.00 0.00 83 1003.0
20260506090002 50 22 0.0 0.0 0.00 0.00 0.00 83 1002.8
20260506084502 50 29 0.0 0.0 0.00 0.00 0.00 83 1002.9
20260506083001 50 284 0.9 0.0 0.00 0.00 0.00 83 1002.6
20260506081500 50 276 0.0 0.0 0.00 0.00 0.00 84 1002.7
20260506073000 50 240 0.0 0.0 0.00 0.00 0.00 85 1002.4
20260506071500 50 191 0.0 0.0 0.00 0.00 0.00 86 1002.3
20260506061500 48 257 0.0 0.0 0.00 0.00 0.00 90 1002.3
20260506044502 48 55 0.0 0.0 0.00 0.00 0.00 91 1001.9
20260506043002 48 244 0.0 0.0 0.00 0.00 0.00 91 1001.9
20260506041500 50 252 0.9 0.0 0.00 0.00 0.00 90 1002.0
20260506040002 50 116 0.9 0.0 0.00 0.00 0.00 89 1002.1
20260506034502 50 116 0.0 0.0 0.00 0.00 0.00 87 1001.8
20260506033001 50 244 0.0 0.0 0.00 0.00 0.00 88 1002.0
20260506031501 50 216 1.7 0.0 0.00 0.00 0.00 89 1002.0
20260506030002 50 247 0.0 0.0 0.00 0.00 0.00 89 1002.3
20260506024502 50 259 0.0 0.0 0.00 0.00 0.00 89 1002.3
20260506023002 50 247 0.0 0.0 0.00 0.00 0.00 89 1002.3
20260506021501 50 171 0.9 0.0 0.00 0.00 0.00 89 1002.6
20260506010000 50 219 0.9 0.0 0.00 0.00 0.00 87 1002.9
20260506004502 50 260 0.9 0.0 0.00 0.00 0.00 87 1003.2
20260506003002 50 244 0.0 0.0 0.00 0.00 0.00 87 1003.2
20260506001500 50 265 0.9 0.0 0.00 0.00 0.00 87 1003.3
20260506000000 50 266 0.0 0.0 0.00 0.00 0.00 87 1003.4
20260505234500 50 221 0.9 0.0 0.00 0.00 0.00 85 1003.5
20260505233002 50 266 0.0 0.0 0.00 0.00 0.00 84 1003.6
20260505231501 50 237 0.9 0.0 0.00 0.00 0.00 84 1003.7
20260505230000 50 264 0.0 0.0 0.00 0.00 0.00 83 1003.7
20260505224500 50 255 0.9 0.0 0.00 0.00 0.00 83 1003.8
20260505223002 50 232 0.9 0.0 0.00 0.00 0.00 84 1004.0
20260505221500 50 234 0.0 0.0 0.00 0.00 0.00 84 1004.0
20260505220000 50 207 0.9 0.0 0.00 0.00 0.00 84 1003.8
20260505214502 50 250 0.0 0.0 0.00 0.00 0.00 85 1003.9
20260505213001 50 244 0.9 0.0 0.00 0.00 0.00 84 1004.3
20260505211502 50 248 0.0 0.0 0.00 0.00 0.00 84 1004.4
20260505210002 50 216 0.9 0.0 0.00 0.00 0.00 85 1004.3
20260505204500 50 237 0.0 0.0 0.00 0.00 0.00 85 1004.4
20260505203002 50 235 0.0 0.0 0.00 0.00 0.00 85 1004.6